ジェディキ彗星

269P/Jedicke (2014)

English version
Home page
Updated on May 22, 2017

---------------------------------------------------------------------

・ プロフィール

符号 269P/2012 R2
検出日 2012年9月11日
検出光度 20.9等
検出者 Artyom Novichonok and Otabek Burhonov (Majdanak observatory in Uzbekistan)

・ 写真集

・ 軌道要素

Epoch 2014 Oct. 30.0 TT = JDT 2456960.5
T 2014 Nov. 14.60937 TT                                 MPCW
q   4.0793217            (2000.0)            P               Q
n   0.04971063     Peri.  223.36865     -0.37175833     -0.92212674
a   7.3254872      Node   248.71759     +0.88004553     -0.31333319
e   0.4431331      Incl.    6.60228     +0.29549215     -0.22694622
P  19.83
From 856 observations 1993 Oct. 12-2017 Mar. 21, mean residual 0".5.

・ 星図

・ 光度変化

        m1 = -1.2 + 5 logΔ + 24.0 log r(t - 60)

---------------------------------------------------------------------

軌道要素はM.P.E.C. 2017-J52に掲載されたものです。
星図はステラナビゲータ Ver.8 (アストロアーツ) で作成したものです。
光度グラフはComet for Windowsで作成したものです。

---------------------------------------------------------------------

Copyright(C) Seiichi Yoshida (comet@aerith.net). All rights reserved.